Theta_e
312 312 313 313 311 311 312 312 312 312 312 312 313 313 313 312 312 312 312 312 313 313 313 313 313 313 306 296 297 302 319 313 308 322 309 304 301 298 294 296 299 301 307 310 311 312 312
311 312 312 311 311 311 311 311 311 312 312 312 312 312 312 312 312 312 313 313 313 312 312 312 313 312 301 289 302 305 306 305 304 302 307 303 300 300 297 296 296 299 300 304 308 307 308
310 311 311 311 311 311 311 312 312 311 312 312 312 312 312 313 313 313 313 313 312 312 312 313 313 309 300 296 306 304 302 300 302 303 300 305 305 302 300 296 300 300 296 300 302 303 306
311 310 310 310 311 311 311 311 311 310 310 310 310 312 312 312 313 313 313 313 312 313 314 314 314 307 295 306 306 304 305 303 304 304 303 303 302 298 299 301 300 296 295 293 300 303 304
310 310 310 310 311 311 310 310 310 310 309 310 310 312 311 311 311 312 312 312 313 314 315 314 306 302 293 310 304 306 305 300 302 303 302 305 299 296 297 293 290 293 291 292 296 304 303
310 310 310 309 309 309 309 309 309 309 310 311 311 311 311 311 311 312 312 312 312 312 311 311 309 299 301 300 306 308 306 304 301 300 298 296 292 291 289 289 286 290 291 294 294 300 302
309 309 310 309 309 309 309 309 309 310 310 310 310 310 311 311 312 312 308 301 296 293 297 293 295 297 300 303 305 302 307 302 302 297 288 291 286 285 290 292 293 295 294 294 297 301 300
309 309 309 309 309 308 308 309 309 309 309 309 309 309 310 311 312 311 304 298 298 297 290 298 298 298 301 302 295 298 303 295 293 287 291 287 285 291 293 294 293 292 290 290 294 298 299
309 309 309 309 309 308 308 309 309 309 309 309 309 310 310 310 310 304 300 300 303 300 288 293 299 299 299 299 295 295 299 296 291 288 288 286 290 295 292 291 291 291 289 291 291 295 297
308 308 308 308 309 309 308 308 308 308 309 309 309 309 309 309 302 301 299 304 302 299 283 290 295 297 299 298 293 301 301 296 292 287 288 287 291 290 291 289 291 287 294 294 292 291 286
308 308 308 309 309 309 308 308 308 308 308 309 309 309 309 308 299 297 303 302 302 297 272 291 294 304 300 296 297 298 306 301 291 289 288 285 288 287 288 290 294 289 295 294 294 290 289
307 308 308 308 308 308 309 309 308 309 308 308 309 309 309 303 299 302 305 301 298 281 271 287 293 291 292 294 294 298 298 301 300 294 291 289 293 291 289 291 292 293 293 292 292 288 282
306 307 307 307 308 308 309 308 308 309 308 308 309 308 306 305 297 303 301 295 280 274 290 286 287 289 289 289 291 293 291 290 288 285 284 290 292 295 297 289 291 289 283 279 278 279 281
306 306 307 308 308 308 308 308 308 308 308 308 307 306 304 305 302 303 297 286 272 284 286 291 290 289 286 289 289 291 289 287 292 291 286 283 282 291 296 292 285 285 284 279 275 277 282
306 306 306 306 308 308 308 308 308 307 307 307 306 298 300 303 304 300 290 278 280 286 290 288 288 284 284 288 289 288 288 287 290 291 283 283 284 294 294 294 291 287 282 287 282 286 282
306 306 306 307 307 307 307 308 308 308 307 306 297 295 298 305 303 297 286 283 286 292 292 291 282 286 282 285 285 285 287 292 290 293 292 287 281 290 292 293 292 290 292 281 281 277 276
306 306 306 307 307 307 307 307 308 308 307 305 295 294 301 304 302 291 279 284 290 294 295 290 287 285 285 285 286 285 287 291 293 292 292 288 284 285 290 287 285 285 285 285 284 283 280
306 305 305 306 307 307 307 307 307 307 306 299 293 289 301 302 287 281 281 290 294 292 295 292 291 288 287 287 286 286 286 289 295 295 289 291 285 281 284 290 294 290 287 286 280 279 284
307 306 306 306 307 307 307 306 307 307 306 299 290 291 302 299 281 281 287 290 293 291 292 291 289 290 290 287 283 288 289 294 295 292 290 290 283 277 280 286 291 289 291 292 288 286 283
308 307 307 307 307 307 306 307 307 306 306 301 291 287 290 291 289 284 285 288 289 294 293 293 290 291 288 286 287 286 287 292 295 294 298 295 285 282 275 282 288 287 290 291 288 282 285
307 307 307 308 308 308 307 307 307 306 306 298 292 287 289 282 286 287 288 288 289 289 292 292 289 289 287 285 285 285 289 290 293 296 295 290 284 286 286 288 289 289 289 290 288 288 285
307 307 307 307 307 307 307 306 307 306 306 296 288 289 291 289 289 286 287 287 288 290 290 289 287 290 290 287 288 286 288 288 287 289 290 291 284 288 284 289 289 288 290 291 290 290 290
307 307 308 308 308 307 307 307 307 306 303 291 293 294 294 291 287 285 284 288 290 292 292 293 291 290 289 291 295 294 293 292 291 287 286 288 287 285 280 288 288 283 289 290 293 293 293
308 308 308 308 308 308 307 307 307 306 305 297 294 296 292 285 288 287 290 291 291 291 289 292 292 289 293 298 296 295 292 291 291 291 292 287 284 285 282 285 277 291 297 298 298 295 301
308 308 307 307 307 307 308 308 308 307 306 296 294 296 294 287 290 290 291 290 291 293 290 292 293 295 296 292 287 286 286 287 290 292 291 291 287 282 281 283 288 292 293 294 294 295 304
307 308 307 307 306 307 308 308 308 308 307 297 295 294 295 291 287 293 289 290 288 290 290 293 295 296 293 288 287 281 280 284 285 288 294 290 290 285 284 280 280 288 293 297 298 293 304
308 307 307 307 306 306 307 307 308 308 308 302 297 295 295 290 293 293 291 289 294 293 289 292 292 290 291 283 278 282 283 289 281 284 286 287 287 283 283 283 286 291 293 298 291 294 303
307 307 307 306 305 305 306 307 307 307 308 304 297 297 294 289 291 295 296 292 292 292 288 293 289 287 287 285 282 282 284 285 286 288 287 285 283 285 287 283 281 292 293 293 296 302 304
306 306 306 305 304 305 304 306 307 307 308 307 297 298 298 294 294 299 300 301 300 298 294 294 291 290 292 286 283 287 284 287 286 281 292 285 288 285 287 286 293 293 296 302 302 301 302
Wind_Speed
13 13 15 15 16 16 16 16 16 16 16 17 17 18 18 19 19 19 19 19 17 16 16 16 16 15 6 3 11 21 26 20 16 3 16 10 12 7 7 6 7 21 17 13 12 18 20
16 16 16 16 16 16 16 16 16 16 17 18 18 19 20 21 21 21 20 19 19 18 16 15 13 10 4 10 10 13 14 9 7 7 8 9 6 7 4 5 9 4 3 13 13 19 18
16 16 16 16 16 17 17 18 18 19 18 19 19 20 22 23 23 24 25 24 22 20 19 16 12 7 9 22 6 8 14 8 7 9 6 6 6 6 6 4 10 11 11 15 20 10 13
17 17 17 17 17 18 18 18 19 19 19 19 20 19 21 23 24 25 27 28 28 25 19 14 9 4 9 12 11 16 16 10 9 12 10 11 5 4 4 5 6 2 4 19 19 19 9
17 17 18 18 18 18 19 19 19 19 19 19 19 19 21 24 25 24 25 28 32 24 11 5 3 3 12 9 6 13 13 11 5 6 6 8 3 6 3 4 1 7 17 21 25 10 5
18 18 18 19 19 19 19 19 19 20 20 20 20 20 21 23 25 22 23 24 23 7 3 6 3 4 6 7 7 21 7 8 6 3 4 1 2 5 4 7 21 12 22 18 17 7 15
18 19 19 20 21 20 20 21 20 21 21 22 24 23 23 24 24 20 13 7 9 5 7 3 18 17 24 32 27 26 13 11 5 4 6 3 4 20 26 16 10 10 12 15 4 10 14
17 18 18 19 21 22 22 21 22 23 23 24 25 26 26 27 24 23 1 2 6 7 10 12 17 19 23 23 24 29 18 7 5 5 3 3 19 14 10 6 12 15 15 19 6 8 10
17 18 18 19 20 20 22 21 22 22 23 24 25 25 26 28 29 5 4 5 6 6 3 9 16 11 15 5 18 25 9 8 9 11 9 10 6 9 16 13 17 16 18 14 10 11 20
18 18 19 19 19 19 22 22 23 24 24 24 24 26 25 27 5 5 7 8 7 3 2 6 7 6 8 2 3 12 18 15 9 11 12 12 12 14 14 19 17 19 12 11 16 13 16
19 19 19 18 19 20 21 22 23 24 23 23 23 24 24 20 5 4 9 7 7 5 4 12 9 3 8 12 15 3 8 7 23 21 9 12 9 4 13 16 15 19 14 11 13 11 14
19 20 20 20 21 21 20 21 23 23 24 24 24 24 22 5 2 9 10 7 5 7 3 8 7 13 13 10 15 12 4 13 15 9 20 13 10 15 13 14 12 8 10 17 17 4 9
20 20 21 22 22 22 22 22 24 24 24 25 26 27 16 2 6 6 6 5 6 6 9 9 22 17 6 11 14 11 5 3 6 5 3 3 9 11 11 12 11 7 1 4 4 6 17
20 21 21 21 22 22 22 23 24 25 25 26 28 25 3 6 6 5 5 7 7 4 6 15 20 22 6 9 8 12 10 7 0 13 4 7 5 9 2 2 6 7 10 6 7 5 8
20 20 21 22 21 22 23 24 24 26 26 28 22 4 3 5 7 3 6 6 3 9 6 12 13 7 5 8 4 9 7 3 9 13 3 1 5 2 7 8 2 5 10 7 5 14 2
20 20 21 21 21 22 23 23 25 27 28 31 4 4 4 4 4 5 6 3 3 12 10 8 3 4 11 8 7 9 5 3 6 8 1 6 5 5 6 5 3 7 4 4 4 8 7
19 20 20 19 20 21 22 23 23 25 28 25 2 4 5 4 5 5 3 5 9 13 11 6 6 7 9 7 8 6 4 5 3 6 5 3 1 5 5 5 9 3 2 3 4 4 11
19 19 20 20 20 20 22 23 24 24 24 7 4 3 4 4 4 1 1 5 11 15 9 4 5 4 4 5 5 5 4 4 7 6 7 1 2 4 10 15 13 4 6 5 2 7 5
19 20 20 19 19 20 21 22 23 22 19 6 4 4 4 6 3 4 5 10 13 11 15 4 5 4 3 3 5 5 3 6 4 2 2 5 3 4 10 2 7 6 3 1 4 6 16
19 19 20 20 19 19 20 21 23 22 20 4 3 5 6 5 1 2 7 6 11 10 14 10 9 4 6 7 5 6 12 4 5 6 9 2 4 6 6 8 8 8 8 7 3 4 10
20 20 20 20 19 19 19 20 21 24 25 3 2 3 1 5 6 7 7 5 14 7 6 9 4 6 8 6 9 4 5 9 6 13 4 7 5 10 12 17 17 18 17 12 8 6 4
19 20 20 20 21 20 19 19 19 20 25 4 3 4 5 7 6 6 5 3 16 11 7 8 8 17 8 10 10 17 12 9 9 6 8 6 5 5 15 18 19 20 13 13 11 12 11
18 18 18 18 18 20 19 17 17 17 12 3 3 3 2 5 5 4 4 13 12 12 9 11 13 15 10 14 13 21 19 19 16 10 7 8 5 3 8 13 3 4 12 10 5 7 6
17 17 18 18 18 17 17 16 14 12 8 1 3 3 3 6 7 9 15 13 14 16 11 14 10 6 10 22 21 15 11 15 14 16 13 9 5 4 7 6 5 5 11 5 7 8 1
18 17 18 17 17 17 16 15 14 11 10 2 2 2 3 7 8 16 9 12 12 14 5 13 11 15 15 9 5 8 5 6 4 8 13 14 8 3 3 3 3 3 10 9 11 5 3
19 18 17 17 18 18 17 16 14 12 8 0 4 4 3 5 5 6 16 9 11 8 8 12 9 8 6 3 3 4 4 4 5 10 8 9 9 3 3 4 2 1 9 16 12 5 8
17 18 17 18 19 19 18 17 16 14 11 3 4 2 3 6 10 7 4 8 5 4 5 8 9 8 5 5 4 3 3 5 5 6 4 3 3 7 7 5 3 4 14 16 6 3 18
16 17 17 17 18 20 18 18 17 15 14 4 4 4 3 5 13 16 12 11 8 7 3 4 6 5 4 6 4 3 3 4 4 4 6 2 3 1 4 1 5 15 15 8 6 7 12
16 17 18 17 18 19 20 18 17 16 15 7 3 3 2 5 8 11 16 22 19 27 5 1 2 1 3 3 3 3 3 3 4 5 4 3 4 2 2 1 4 12 11 6 8 9 12
Wind_Direction
22 24 23 25 16 10 6 3 1 357 353 347 342 339 335 330 325 320 316 312 306 301 298 299 303 312 344 325 261 277 306 326 322 185 201 200 196 161 201 208 230 251 255 244 246 249 254
22 19 18 15 12 8 4 2 360 355 349 344 341 338 332 327 325 318 311 308 305 302 298 296 295 307 284 275 240 277 294 322 311 340 217 183 204 191 262 224 213 296 293 266 256 251 256
19 17 14 10 8 5 2 359 356 353 349 344 340 335 331 329 323 321 317 314 306 298 299 293 287 276 249 251 214 278 300 292 286 286 283 270 223 186 188 284 245 262 283 280 258 247 256
15 14 9 7 5 1 357 354 352 349 345 340 337 329 326 323 321 320 317 312 304 304 301 285 271 268 255 255 248 267 265 278 246 237 238 261 247 249 200 274 315 242 247 247 248 244 243
10 7 4 2 359 357 353 350 348 344 341 336 331 325 324 323 320 318 312 306 300 309 307 234 149 176 265 292 220 250 225 248 270 265 212 268 216 189 259 173 347 208 239 238 250 226 237
8 4 1 358 354 352 349 346 344 340 337 333 331 329 326 320 318 317 313 302 295 334 176 159 207 311 260 296 287 329 253 198 229 286 332 188 225 207 180 174 215 215 221 236 256 215 227
5 1 357 355 352 349 346 345 342 340 339 338 336 333 328 326 324 322 335 350 18 350 320 258 280 252 263 275 288 290 298 340 237 231 181 244 185 221 217 225 285 276 263 252 252 200 213
1 359 357 355 351 349 346 346 345 343 342 340 337 335 334 330 328 327 107 1 347 251 303 320 280 273 260 261 274 280 289 296 303 258 192 227 233 248 269 260 227 248 267 268 307 297 230
357 355 353 352 348 346 347 345 345 343 341 340 338 335 337 332 323 351 266 297 327 35 348 303 314 306 304 227 244 254 264 270 262 267 253 222 224 220 239 249 248 244 236 261 268 305 291
356 354 352 350 345 346 346 346 344 343 341 339 336 332 334 336 357 331 302 326 315 100 66 277 292 271 312 191 254 228 243 243 234 239 231 255 247 254 259 229 237 249 251 253 245 254 260
356 355 353 349 347 346 343 343 342 340 336 334 331 328 329 329 269 314 261 315 307 64 30 334 293 258 298 21 339 149 271 285 221 233 194 231 284 239 238 246 230 251 251 244 229 237 247
357 355 352 349 349 346 342 342 339 336 334 331 326 324 330 338 271 241 286 318 54 49 294 317 314 348 355 351 345 351 49 28 324 258 227 230 210 249 255 261 262 287 231 235 259 240 243
359 357 353 350 348 345 343 341 339 335 333 328 323 319 318 247 245 300 334 30 40 89 337 339 327 338 341 356 331 4 336 234 185 350 303 293 250 238 235 247 256 230 235 233 244 200 235
358 356 353 352 348 345 343 341 338 336 333 327 323 316 260 208 235 292 30 41 61 302 319 330 336 310 355 14 311 326 349 346 256 177 218 208 248 215 162 187 215 185 179 189 196 193 243
354 354 352 351 348 346 343 340 339 337 334 327 323 319 290 258 225 95 59 41 229 336 285 325 329 320 345 338 266 328 341 303 20 33 279 111 252 38 301 297 184 309 217 205 284 275 359
351 350 350 348 347 346 345 343 340 339 337 328 315 334 273 214 141 65 68 257 257 313 322 355 315 308 317 322 329 341 315 7 360 18 348 17 309 265 306 349 270 201 291 164 201 211 236
348 348 346 346 346 345 345 344 343 341 339 330 13 12 272 125 66 52 136 237 286 321 358 309 294 302 322 330 306 301 353 318 334 333 311 116 21 310 339 209 230 310 226 220 166 195 219
344 345 345 345 345 345 344 345 345 346 343 28 352 8 291 73 30 33 293 278 326 325 344 297 290 302 331 302 289 296 327 230 344 338 318 119 148 264 252 249 261 235 247 148 190 256 265
341 342 343 343 344 344 345 344 345 348 357 327 334 276 327 84 47 316 297 322 305 324 318 291 285 298 271 278 320 268 244 298 281 285 315 355 281 307 315 317 236 252 179 3 231 229 244
341 341 342 343 343 345 346 345 343 343 345 346 343 349 330 32 147 26 318 313 328 297 295 341 293 325 342 309 253 285 299 288 289 190 265 50 242 225 225 273 327 285 292 300 314 253 248
340 339 340 342 343 346 345 346 346 342 342 95 44 284 200 305 321 315 303 277 312 321 303 316 305 328 312 295 297 257 306 310 292 272 174 162 232 259 266 268 267 262 261 255 246 257 261
336 338 337 339 340 343 345 345 347 348 338 53 33 2 348 286 277 303 315 333 311 319 296 300 314 310 303 291 271 293 280 277 255 281 173 177 251 235 279 266 261 242 234 241 242 262 253
330 331 331 332 335 338 342 342 346 352 4 11 316 308 238 274 293 320 254 321 299 322 299 288 301 304 304 286 276 278 259 261 240 225 227 194 210 237 270 337 176 227 240 219 249 214 224
320 321 325 329 329 330 335 338 339 346 11 298 264 279 266 278 313 295 296 303 319 318 298 303 321 314 291 301 297 275 257 238 225 233 222 238 199 205 279 277 232 103 42 359 236 193 255
317 319 320 323 323 325 325 326 329 333 334 188 259 281 276 282 303 291 290 320 302 316 299 302 303 298 301 296 325 316 338 10 345 222 227 215 220 265 247 281 319 62 30 355 1 293 348
312 315 319 316 322 323 321 321 321 321 317 302 250 197 254 292 248 306 310 284 301 319 316 310 307 295 333 324 331 331 342 304 315 334 334 191 205 189 284 284 292 118 319 326 306 244 360
306 310 314 317 318 321 319 318 317 317 314 274 262 208 262 273 269 256 271 310 287 284 297 301 329 335 16 354 5 322 342 329 324 331 353 25 333 241 252 268 287 33 289 297 202 6 319
305 307 306 313 316 315 316 315 313 312 311 289 247 218 188 245 277 262 268 267 275 280 267 336 336 8 323 356 5 327 306 330 302 314 338 343 272 236 230 258 277 354 346 24 321 286 305
308 305 307 311 313 311 310 307 307 306 305 300 247 212 195 248 266 307 272 257 246 249 241 244 203 240 291 324 336 301 307 294 310 322 352 2 327 287 25 228 354 295 277 329 344 327 308